Location: Newark
(51.2625°N, 13.3939°E)
Time: 22:12:25
(UTC+00:00)

Explorer 7 - Pass Details

Date: 19 November 2019
Orbit: 485 x 680 km, 50.3° (Epoch: 12 December)

Event Time Altitude Azimuth Distance (km) Brightness Sun altitude
Rises 00:45:20 0° 248° (WSW) 2,908 - -51.0°
Reaches altitude 10° 00:47:43 10° 245° (WSW) 1,971 - -50.8°
Maximum altitude 00:52:11 63° 165° (SSE) 657 - -50.3°
Drops below altitude 10° 00:56:22 10° 84° (E) 1,851 - -49.8°
Sets 00:58:33 0° 81° (E) 2,714 - -49.5°
